Location: Calvatone
(45.1167°N, 10.4333°E)
Time: 08:42:49
(UTC+00:00)

XW-2B - Visible Passes

Search period start: 08 December 2023 00:00
Search period end: 18 December 2023 00:00
Orbit: 455 x 464 km, 97.5° (Epoch: 07 December)

Date Brightness Start Highest point End Pass type
(mag) Time Alt. Az. Time Alt. Az. Time Alt. Az.
08 Dec ? 05:07:04 10° NE 05:09:14 16° E 05:11:23 10° SE visible
08 Dec ? 17:12:55 10° S 17:16:23 73° W 17:19:53 10° NNW visible
09 Dec ? 06:06:58 10° NNE 06:10:29 88° W 06:13:56 10° SSW visible
09 Dec ? 16:41:15 10° SE 16:44:31 41° ENE 16:47:50 10° N visible
09 Dec ? 18:16:03 10° WSW 18:17:41 13° W 18:19:18 10° WNW visible
10 Dec ? 05:35:17 10° NNE 05:38:29 34° E 05:41:39 10° SSE visible
10 Dec ? 16:10:21 10° ESE 16:12:46 18° ENE 16:15:12 10° NNE visible
10 Dec ? 17:42:24 10° SSW 17:45:30 30° W 17:48:38 10° NNW visible
11 Dec ? 05:04:22 10° ENE 05:06:19 14° E 05:08:15 10° SE visible
11 Dec ? 17:09:59 10° S 17:13:27 81° WSW 17:16:57 10° NNW visible
12 Dec ? 06:04:00 10° NNE 06:07:29 83° ESE 06:10:56 10° SSW visible
12 Dec ? 16:38:17 10° SE 16:41:30 37° ENE 16:44:45 10° N visible
12 Dec ? 18:12:43 10° SW 18:14:37 14° W 18:16:32 10° WNW visible
13 Dec ? 05:32:16 10° NNE 05:35:23 30° E 05:38:28 10° SSE visible
13 Dec ? 17:39:12 10° SSW 17:42:22 33° W 17:45:34 10° NNW visible
14 Dec ? 05:01:27 10° ENE 05:03:07 13° E 05:04:45 10° ESE visible
14 Dec ? 17:06:47 10° SSE 17:10:14 90° NW 17:13:45 10° NNW visible
15 Dec ? 06:00:44 10° NNE 06:04:13 74° ESE 06:07:39 10° S visible
15 Dec ? 16:35:04 10° SE 16:38:14 34° ENE 16:41:25 10° N visible
15 Dec ? 18:09:08 10° SW 18:11:17 15° W 18:13:26 10° NW visible
16 Dec ? 05:29:00 10° NE 05:32:01 27° E 05:35:01 10° SSE visible
16 Dec ? 17:35:44 10° SSW 17:38:58 37° W 17:42:14 10° NNW visible
17 Dec ? 04:58:23 10° ENE 04:59:38 12° E 05:00:53 10° ESE visible
17 Dec ? 17:03:18 10° SSE 17:06:45 80° ENE 17:10:15 10° N visible
